NOZ9JL EHAM-ENGM

Flight info

Callsign NOZ9JL
Flight time 1h 21m
Altitude 39000
Route ANDIK Z733 KONOM DCT AMADA DCT PIPEX M609 RIPAM
Aircraft B738/M-SDE2E3GHIJ1LRWXY/LB1

Departure

Time 2026-05-07 20:03
Airport Amsterdam Airport Schiphol (EHAM)

Arrival

Time 2026-05-07 21:24
Airport Oslo-Gardermoen International Airport (ENGM)
Time Latitude Longitude Altitude Speed Heading
2026-05-07 19:17 52.31028 4.75461 -2 ft 0 kts 148°
2026-05-07 19:51 52.31030 4.75459 -2 ft 3 kts 148°
2026-05-07 19:51 52.31053 4.75437 -2 ft 4 kts 141°
2026-05-07 19:52 52.31062 4.75413 -2 ft 4 kts 85°
2026-05-07 19:52 52.31058 4.75389 -2 ft 0 kts 69°
2026-05-07 19:55 52.31058 4.75390 -2 ft 1 kts 69°
2026-05-07 19:56 52.31074 4.75427 -2 ft 9 kts 53°
2026-05-07 19:56 52.31136 4.75497 -2 ft 13 kts 358°
2026-05-07 19:56 52.31224 4.75489 -2 ft 12 kts 356°
2026-05-07 19:56 52.31310 4.75481 -2 ft 12 kts 357°
2026-05-07 19:57 52.31393 4.75474 -2 ft 12 kts 357°
2026-05-07 19:57 52.31450 4.75469 -2 ft 0 kts 356°
2026-05-07 19:58 52.31471 4.75467 -2 ft 6 kts 356°
2026-05-07 19:58 52.31510 4.75411 -2 ft 10 kts 273°
2026-05-07 19:58 52.31506 4.75282 -2 ft 13 kts 266°
2026-05-07 19:59 52.31499 4.75105 -2 ft 19 kts 266°
2026-05-07 19:59 52.31491 4.74850 -2 ft 26 kts 267°
2026-05-07 19:59 52.31482 4.74576 -2 ft 20 kts 266°
2026-05-07 19:59 52.31475 4.74372 -2 ft 16 kts 267°
2026-05-07 20:00 52.31460 4.74217 -2 ft 13 kts 245°
2026-05-07 20:00 52.31383 4.74138 -2 ft 15 kts 184°
2026-05-07 20:00 52.31261 4.74127 -2 ft 20 kts 183°
2026-05-07 20:00 52.31104 4.74112 -2 ft 26 kts 184°
2026-05-07 20:01 52.30916 4.74096 -2 ft 27 kts 182°
2026-05-07 20:01 52.30731 4.74080 -2 ft 26 kts 183°
2026-05-07 20:01 52.30573 4.74066 -2 ft 20 kts 183°
2026-05-07 20:01 52.30468 4.74056 -2 ft 12 kts 183°
2026-05-07 20:02 52.30411 4.73995 -2 ft 11 kts 255°
2026-05-07 20:02 52.30408 4.73877 -3 ft 10 kts 272°
2026-05-07 20:02 52.30416 4.73770 -4 ft 7 kts 304°
2026-05-07 20:02 52.30442 4.73761 -4 ft 0 kts
2026-05-07 20:03 52.30464 4.73762 -4 ft 15 kts
2026-05-07 20:03 52.30836 4.73797 -2 ft 91 kts
2026-05-07 20:03 52.31694 4.73871 8 ft 152 kts
2026-05-07 20:03 52.32776 4.73977 688 ft 153 kts
2026-05-07 20:04 52.33838 4.74119 1439 ft 158 kts 14°
2026-05-07 20:04 52.34911 4.74867 1747 ft 185 kts 29°
2026-05-07 20:04 52.36177 4.75857 2034 ft 212 kts 27°
2026-05-07 20:04 52.37529 4.76888 2504 ft 222 kts 26°
2026-05-07 20:05 52.38815 4.78311 3142 ft 227 kts 49°
2026-05-07 20:05 52.39877 4.80231 3956 ft 229 kts 48°
2026-05-07 20:05 52.41063 4.82021 4705 ft 235 kts 41°
2026-05-07 20:05 52.42337 4.83739 5438 ft 242 kts 40°
2026-05-07 20:06 52.43715 4.85573 5715 ft 268 kts 40°
2026-05-07 20:06 52.45189 4.87544 6386 ft 277 kts 40°
2026-05-07 20:06 52.46689 4.89562 7195 ft 281 kts 40°
2026-05-07 20:06 52.48206 4.91615 8021 ft 285 kts 40°
2026-05-07 20:07 52.49739 4.93698 8925 ft 286 kts 40°
2026-05-07 20:07 52.51273 4.95787 9873 ft 288 kts 40°
2026-05-07 20:07 52.52831 4.97917 10570 ft 299 kts 40°
2026-05-07 20:07 52.54502 5.00206 10836 ft 323 kts 39°
2026-05-07 20:08 52.56258 5.02616 11466 ft 334 kts 39°
2026-05-07 20:08 52.58082 5.05121 11965 ft 348 kts 39°
2026-05-07 20:08 52.59956 5.07700 12697 ft 355 kts 39°
2026-05-07 20:08 52.61868 5.10334 13516 ft 360 kts 39°
2026-05-07 20:09 52.63795 5.12993 14357 ft 363 kts 39°
2026-05-07 20:09 52.65716 5.15648 15146 ft 368 kts 39°
2026-05-07 20:09 52.67685 5.18371 15925 ft 372 kts 40°
2026-05-07 20:10 52.71712 5.23919 17469 ft 382 kts 37°
2026-05-07 20:10 52.73979 5.26216 18282 ft 386 kts 25°
2026-05-07 20:10 52.76514 5.27749 18947 ft 390 kts 13°
2026-05-07 20:10 52.79196 5.28516 19654 ft 392 kts
2026-05-07 20:11 52.81916 5.29110 20322 ft 397 kts
2026-05-07 20:11 52.84670 5.29711 20966 ft 401 kts
2026-05-07 20:11 52.87441 5.30368 21640 ft 405 kts
2026-05-07 20:11 52.90243 5.31058 22261 ft 409 kts
2026-05-07 20:12 52.93072 5.31766 22858 ft 413 kts
2026-05-07 20:12 52.95927 5.32483 23483 ft 417 kts
2026-05-07 20:12 52.98814 5.33208 23993 ft 422 kts
2026-05-07 20:12 53.01720 5.33937 24555 ft 423 kts
2026-05-07 20:13 53.04646 5.34669 25051 ft 427 kts
2026-05-07 20:13 53.07596 5.35408 25529 ft 430 kts
2026-05-07 20:13 53.10521 5.36140 26031 ft 432 kts
2026-05-07 20:13 53.13511 5.36889 26477 ft 436 kts
2026-05-07 20:14 53.16509 5.37640 27049 ft 436 kts
2026-05-07 20:14 53.19516 5.38398 27579 ft 438 kts
2026-05-07 20:14 53.22534 5.39159 28006 ft 441 kts
2026-05-07 20:14 53.25583 5.39929 28415 ft 444 kts
2026-05-07 20:15 53.28652 5.40704 28833 ft 447 kts
2026-05-07 20:15 53.31738 5.41485 29245 ft 450 kts
2026-05-07 20:15 53.34843 5.42271 29649 ft 452 kts
2026-05-07 20:15 53.37965 5.43063 30035 ft 455 kts
2026-05-07 20:16 53.41101 5.43859 30362 ft 458 kts 10°
2026-05-07 20:16 53.44263 5.44664 30667 ft 460 kts
2026-05-07 20:16 53.47435 5.45473 30964 ft 463 kts
2026-05-07 20:16 53.50628 5.46287 31256 ft 465 kts
2026-05-07 20:17 53.53832 5.47105 31595 ft 466 kts
2026-05-07 20:17 53.57074 5.47934 32049 ft 464 kts
2026-05-07 20:17 53.60220 5.48740 32503 ft 462 kts
2026-05-07 20:17 53.63388 5.49636 32919 ft 461 kts 14°
2026-05-07 20:18 53.66450 5.51150 33317 ft 458 kts 21°
2026-05-07 20:18 53.69444 5.52965 33704 ft 457 kts 22°
2026-05-07 20:18 53.72425 5.54847 34071 ft 457 kts 22°
2026-05-07 20:18 53.75401 5.56737 34388 ft 457 kts 22°
2026-05-07 20:19 53.78384 5.58614 34653 ft 458 kts 22°
2026-05-07 20:19 53.81382 5.60479 34899 ft 459 kts 21°
2026-05-07 20:19 53.84389 5.62333 35180 ft 460 kts 21°
2026-05-07 20:19 53.87396 5.64174 35479 ft 460 kts 21°
2026-05-07 20:20 53.90400 5.66009 35836 ft 458 kts 21°
2026-05-07 20:20 53.93396 5.67842 36127 ft 459 kts 21°
2026-05-07 20:20 53.96404 5.69684 36338 ft 460 kts 21°
2026-05-07 20:20 53.99420 5.71536 36567 ft 462 kts 21°
2026-05-07 20:21 54.02441 5.73393 36848 ft 462 kts 20°
2026-05-07 20:21 54.05462 5.75253 37117 ft 462 kts 20°
2026-05-07 20:21 54.08486 5.77120 37323 ft 463 kts 20°
2026-05-07 20:21 54.11519 5.78994 37540 ft 464 kts 20°
2026-05-07 20:22 54.14554 5.80872 37821 ft 464 kts 20°
2026-05-07 20:22 54.17585 5.82751 38096 ft 464 kts 20°
2026-05-07 20:22 54.20625 5.84640 38316 ft 465 kts 20°
2026-05-07 20:22 54.23667 5.86532 38547 ft 465 kts 19°
2026-05-07 20:23 54.26712 5.88428 38751 ft 466 kts 19°
2026-05-07 20:23 54.29763 5.90331 38919 ft 467 kts 19°
2026-05-07 20:23 54.32811 5.92239 39108 ft 467 kts 19°
2026-05-07 20:24 54.38965 5.96092 39136 ft 472 kts 19°
2026-05-07 20:24 54.45105 5.99951 39129 ft 467 kts 19°
2026-05-07 20:25 54.51180 6.03779 39138 ft 463 kts 19°
2026-05-07 20:25 54.57217 6.07595 39143 ft 462 kts 20°
2026-05-07 20:26 54.63249 6.11421 39148 ft 461 kts 20°
2026-05-07 20:26 54.69270 6.15252 39142 ft 462 kts 20°
2026-05-07 20:27 54.75308 6.19105 39147 ft 463 kts 20°
2026-05-07 20:27 54.81357 6.22979 39147 ft 464 kts 20°
2026-05-07 20:28 54.87423 6.26877 39154 ft 466 kts 20°
2026-05-07 20:28 54.93506 6.30798 39150 ft 467 kts 20°
2026-05-07 20:29 54.99612 6.34746 39143 ft 468 kts 20°
2026-05-07 20:29 55.05735 6.38641 39147 ft 469 kts 19°
2026-05-07 20:30 55.11874 6.42487 39159 ft 469 kts 19°
2026-05-07 20:30 55.18008 6.46346 39148 ft 468 kts 19°
2026-05-07 20:31 55.24091 6.50194 39153 ft 467 kts 19°
2026-05-07 20:31 55.30193 6.54076 39151 ft 466 kts 19°
2026-05-07 20:32 55.36313 6.57985 39154 ft 464 kts 20°
2026-05-07 20:32 55.42331 6.61838 39148 ft 463 kts 20°
2026-05-07 20:33 55.48382 6.65725 39150 ft 462 kts 20°
2026-05-07 20:33 55.54409 6.69611 39149 ft 461 kts 20°
2026-05-07 20:34 55.60424 6.73501 39156 ft 460 kts 20°
2026-05-07 20:34 55.66433 6.77401 39154 ft 460 kts 20°
2026-05-07 20:35 55.72440 6.81310 39156 ft 460 kts 20°
2026-05-07 20:35 55.78443 6.85230 39158 ft 460 kts 20°
2026-05-07 20:36 55.84447 6.89163 39153 ft 460 kts 20°
2026-05-07 20:36 55.90453 6.93111 39158 ft 460 kts 20°
2026-05-07 20:37 55.96469 6.97079 39153 ft 461 kts 20°
2026-05-07 20:37 56.02487 7.01062 39158 ft 462 kts 20°
2026-05-07 20:38 56.08505 7.05058 39153 ft 462 kts 20°
2026-05-07 20:38 56.14536 7.09073 39161 ft 462 kts 20°
2026-05-07 20:39 56.19543 7.12419 39157 ft 462 kts 20°
2026-05-07 20:39 56.25566 7.16457 39157 ft 462 kts 20°
2026-05-07 20:40 56.31588 7.20509 39157 ft 462 kts 20°
2026-05-07 20:40 56.37611 7.24572 39160 ft 462 kts 20°
2026-05-07 20:41 56.43630 7.28648 39160 ft 462 kts 20°
2026-05-07 20:41 56.49656 7.32741 39158 ft 462 kts 20°
2026-05-07 20:42 56.55671 7.36841 39159 ft 462 kts 20°
2026-05-07 20:42 56.61680 7.40954 39155 ft 461 kts 20°
2026-05-07 20:43 56.67650 7.45051 39158 ft 461 kts 19°
2026-05-07 20:43 56.73652 7.49184 39158 ft 461 kts 20°
2026-05-07 20:44 56.79647 7.53328 39155 ft 460 kts 20°
2026-05-07 20:44 56.85642 7.57486 39157 ft 461 kts 20°
2026-05-07 20:45 56.91648 7.61665 39155 ft 462 kts 19°
2026-05-07 20:45 56.97652 7.65855 39156 ft 462 kts 19°
2026-05-07 20:46 57.03662 7.70065 39157 ft 462 kts 19°
2026-05-07 20:46 57.09671 7.74290 39154 ft 463 kts 19°
2026-05-07 20:47 57.15684 7.78532 39158 ft 463 kts 19°
2026-05-07 20:47 57.21697 7.82790 39153 ft 463 kts 19°
2026-05-07 20:48 57.27711 7.87061 39157 ft 463 kts 19°
2026-05-07 20:48 57.33729 7.91353 39152 ft 463 kts 19°
2026-05-07 20:49 57.39740 7.95654 39153 ft 463 kts 20°
2026-05-07 20:49 57.45760 7.99978 39156 ft 464 kts 19°
2026-05-07 20:50 57.51773 8.04309 39155 ft 464 kts 19°
2026-05-07 20:50 57.57783 8.08654 39154 ft 464 kts 19°
2026-05-07 20:51 57.63797 8.13019 39156 ft 464 kts 19°
2026-05-07 20:51 57.69770 8.17371 39163 ft 464 kts 19°
2026-05-07 20:52 57.75794 8.21769 39162 ft 465 kts 19°
2026-05-07 20:52 57.81813 8.26186 39160 ft 465 kts 19°
2026-05-07 20:53 57.87841 8.30625 39159 ft 465 kts 19°
2026-05-07 20:53 57.93866 8.35077 39170 ft 466 kts 19°
2026-05-07 20:54 57.99905 8.39554 39160 ft 466 kts 19°
2026-05-07 20:54 58.05942 8.44047 39163 ft 466 kts 19°
2026-05-07 20:55 58.11980 8.48557 39164 ft 467 kts 19°
2026-05-07 20:55 58.18012 8.53079 39164 ft 467 kts 19°
2026-05-07 20:56 58.24049 8.57621 39176 ft 467 kts 19°
2026-05-07 20:56 58.30094 8.62188 39169 ft 467 kts 19°
2026-05-07 20:57 58.36129 8.66762 39170 ft 467 kts 19°
2026-05-07 20:57 58.42129 8.71325 39170 ft 467 kts 19°
2026-05-07 20:58 58.48201 8.75960 39160 ft 467 kts 19°
2026-05-07 20:58 58.54193 8.80554 39168 ft 467 kts 19°
2026-05-07 20:59 58.60228 8.85196 39171 ft 467 kts 19°
2026-05-07 20:59 58.66261 8.89855 39144 ft 468 kts 19°
2026-05-07 20:59 58.69304 8.92211 38610 ft 474 kts 19°
2026-05-07 21:00 58.72354 8.94578 38010 ft 471 kts 19°
2026-05-07 21:00 58.75382 8.96934 37383 ft 468 kts 19°
2026-05-07 21:00 58.78389 8.99275 36773 ft 466 kts 19°
2026-05-07 21:00 58.81387 9.01612 36141 ft 464 kts 19°
2026-05-07 21:01 58.84342 9.04141 35454 ft 466 kts 25°
2026-05-07 21:01 58.87080 9.07511 34923 ft 467 kts 34°
2026-05-07 21:01 58.89622 9.11390 34246 ft 468 kts 36°
2026-05-07 21:01 58.92156 9.15384 33451 ft 468 kts 36°
2026-05-07 21:02 58.94668 9.19367 32695 ft 468 kts 36°
2026-05-07 21:02 58.97193 9.23340 32005 ft 466 kts 36°
2026-05-07 21:02 58.99709 9.27273 31489 ft 461 kts 35°
2026-05-07 21:02 59.02201 9.31147 30936 ft 457 kts 35°
2026-05-07 21:03 59.04671 9.34979 30412 ft 453 kts 35°
2026-05-07 21:03 59.07124 9.38787 29823 ft 449 kts 35°
2026-05-07 21:03 59.09550 9.42561 29275 ft 443 kts 35°
2026-05-07 21:03 59.11942 9.46291 28743 ft 438 kts 35°
2026-05-07 21:04 59.14300 9.49972 28206 ft 433 kts 35°
2026-05-07 21:04 59.16660 9.53557 27797 ft 424 kts 30°
2026-05-07 21:04 59.19153 9.56454 27549 ft 417 kts 25°
2026-05-07 21:04 59.21737 9.59187 27298 ft 426 kts 24°
2026-05-07 21:05 59.24364 9.61919 27043 ft 431 kts 24°
2026-05-07 21:05 59.27009 9.64684 26804 ft 430 kts 24°
2026-05-07 21:05 59.29623 9.67451 26349 ft 425 kts 24°
2026-05-07 21:05 59.32196 9.70206 25864 ft 419 kts 24°
2026-05-07 21:06 59.34734 9.72945 25320 ft 414 kts 24°
2026-05-07 21:06 59.37241 9.75663 24814 ft 410 kts 24°
2026-05-07 21:06 59.39728 9.78368 24308 ft 406 kts 24°
2026-05-07 21:06 59.42190 9.81050 23813 ft 403 kts 24°
2026-05-07 21:07 59.44630 9.83713 23237 ft 400 kts 25°
2026-05-07 21:07 59.47014 9.86320 22696 ft 395 kts 25°
2026-05-07 21:07 59.49402 9.88938 22191 ft 391 kts 25°
2026-05-07 21:07 59.51789 9.91557 21706 ft 386 kts 25°
2026-05-07 21:08 59.54094 9.94091 21192 ft 383 kts 25°
2026-05-07 21:08 59.56411 9.96642 20691 ft 380 kts 25°
2026-05-07 21:08 59.58708 9.99173 20199 ft 377 kts 25°
2026-05-07 21:08 59.60993 10.01693 19715 ft 375 kts 25°
2026-05-07 21:09 59.63260 10.04198 19241 ft 373 kts 25°
2026-05-07 21:09 59.65519 10.06698 18761 ft 371 kts 25°
2026-05-07 21:09 59.67763 10.09187 18253 ft 370 kts 25°
2026-05-07 21:09 59.70004 10.11675 17714 ft 367 kts 26°
2026-05-07 21:10 59.72223 10.14144 17235 ft 364 kts 26°
2026-05-07 21:10 59.74418 10.16590 16747 ft 361 kts 26°
2026-05-07 21:10 59.76598 10.19023 16293 ft 358 kts 26°
2026-05-07 21:10 59.78759 10.21438 15833 ft 355 kts 26°
2026-05-07 21:11 59.80906 10.23842 15353 ft 353 kts 26°
2026-05-07 21:11 59.83042 10.26235 14900 ft 351 kts 26°
2026-05-07 21:11 59.87280 10.30996 13986 ft 348 kts 26°
2026-05-07 21:12 59.89381 10.33362 13469 ft 346 kts 27°
2026-05-07 21:12 59.91470 10.35717 13000 ft 343 kts 27°
2026-05-07 21:12 59.93534 10.38047 12539 ft 340 kts 27°
2026-05-07 21:12 59.95582 10.40362 12080 ft 337 kts 27°
2026-05-07 21:13 59.97613 10.42662 11643 ft 334 kts 27°
2026-05-07 21:13 59.99629 10.44948 11186 ft 332 kts 28°
2026-05-07 21:13 60.01630 10.47221 10751 ft 330 kts 28°
2026-05-07 21:13 60.03614 10.49478 10451 ft 324 kts 28°
2026-05-07 21:14 60.05541 10.51673 10239 ft 314 kts 28°
2026-05-07 21:14 60.07411 10.53809 10096 ft 304 kts 28°
2026-05-07 21:14 60.09216 10.55875 9897 ft 296 kts 28°
2026-05-07 21:14 60.11002 10.57916 9546 ft 294 kts 28°
2026-05-07 21:15 60.12761 10.59928 9231 ft 291 kts 28°
2026-05-07 21:15 60.14517 10.61941 8910 ft 288 kts 28°
2026-05-07 21:15 60.16254 10.63934 8584 ft 286 kts 29°
2026-05-07 21:15 60.17973 10.65908 8278 ft 283 kts 29°
2026-05-07 21:16 60.19677 10.67863 7960 ft 281 kts 29°
2026-05-07 21:16 60.21368 10.69808 7639 ft 279 kts 29°
2026-05-07 21:16 60.23041 10.71739 7333 ft 276 kts 29°
2026-05-07 21:16 60.24702 10.73658 7009 ft 275 kts 30°
2026-05-07 21:17 60.26360 10.75573 6701 ft 274 kts 30°
2026-05-07 21:17 60.28009 10.77483 6382 ft 272 kts 30°
2026-05-07 21:17 60.29644 10.79377 6067 ft 270 kts 30°
2026-05-07 21:17 60.31265 10.81255 5742 ft 269 kts 30°
2026-05-07 21:18 60.32891 10.83145 5440 ft 271 kts 30°
2026-05-07 21:18 60.34477 10.84989 5310 ft 261 kts 30°
2026-05-07 21:18 60.36029 10.86794 5181 ft 253 kts 30°
2026-05-07 21:18 60.37477 10.88624 5097 ft 238 kts 42°
2026-05-07 21:19 60.38322 10.91286 4984 ft 219 kts 76°
2026-05-07 21:19 60.38443 10.94251 4777 ft 207 kts 98°
2026-05-07 21:19 60.38064 10.96945 4562 ft 194 kts 117°
2026-05-07 21:19 60.37444 10.99302 4383 ft 187 kts 122°
2026-05-07 21:20 60.36697 11.01446 4213 ft 186 kts 130°
2026-05-07 21:20 60.35828 11.03347 4024 ft 183 kts 137°
2026-05-07 21:20 60.34868 11.05045 3781 ft 184 kts 141°
2026-05-07 21:20 60.33882 11.06690 3538 ft 183 kts 141°
2026-05-07 21:21 60.32907 11.08314 3283 ft 180 kts 141°
2026-05-07 21:21 60.31948 11.09914 3020 ft 179 kts 141°
2026-05-07 21:21 60.30952 11.11384 2807 ft 174 kts 149°
2026-05-07 21:21 60.29904 11.12375 2612 ft 159 kts 156°
2026-05-07 21:22 60.28908 11.13249 2416 ft 155 kts 156°
2026-05-07 21:22 60.27912 11.14128 2238 ft 158 kts 156°
2026-05-07 21:22 60.26879 11.14931 2031 ft 160 kts 165°
2026-05-07 21:22 60.25818 11.15244 1852 ft 148 kts 180°
2026-05-07 21:23 60.24835 11.14994 1632 ft 138 kts 193°
2026-05-07 21:23 60.23912 11.14449 1458 ft 139 kts 196°
2026-05-07 21:23 60.22959 11.13882 1299 ft 144 kts 196°
2026-05-07 21:23 60.21997 11.13309 1102 ft 145 kts 196°
2026-05-07 21:24 60.21035 11.12763 926 ft 144 kts 195°
2026-05-07 21:24 60.20060 11.12219 732 ft 145 kts 197°
2026-05-07 21:24 60.19179 11.11703 682 ft 93 kts 197°
2026-05-07 21:24 60.18926 11.11556 679 ft 12 kts 206°
2026-05-07 21:25 60.18889 11.11415 683 ft 12 kts 272°
2026-05-07 21:25 60.18907 11.11264 681 ft 9 kts 286°
2026-05-07 21:25 60.18928 11.11190 681 ft 6 kts 333°
2026-05-07 21:25 60.18967 11.11190 682 ft 6 kts 16°
2026-05-07 21:26 60.19012 11.11214 680 ft 8 kts 14°
2026-05-07 21:26 60.19043 11.11231 682 ft 0 kts 15°
2026-05-07 21:28 60.19051 11.11235 680 ft 5 kts 16°
2026-05-07 21:28 60.19120 11.11271 682 ft 12 kts
2026-05-07 21:28 60.19162 11.11140 678 ft 12 kts 286°
2026-05-07 21:28 60.19186 11.10979 683 ft 12 kts 286°
2026-05-07 21:29 60.19209 11.10810 683 ft 14 kts 286°
2026-05-07 21:29 60.19237 11.10616 678 ft 14 kts 286°
2026-05-07 21:29 60.19262 11.10445 677 ft 8 kts 286°
2026-05-07 21:29 60.19290 11.10402 682 ft 6 kts
2026-05-07 21:30 60.19315 11.10414 681 ft 2 kts 15°
2026-05-07 21:30 60.19321 11.10418 684 ft 0 kts 15°